This is the latest recevied weather packets stored in our database for station/object N5PRN. If no packets are shown the sender has not sent any weather packets the latest 10 day(s).
| Time | Temp. | Humidity | Pressure | Rain* | Wind** | Luminosity | Snow |
|---|---|---|---|---|---|---|---|
| 1777696328 | 10.56° C | 96% | 1016.7 hPa | 1.78 mm | - | 0 W/m² | - |
| 1777696027 | 10.56° C | 96% | 1017 hPa | 3.05 mm | - | 0 W/m² | - |
| 1777695724 | 10.56° C | 96% | 1016.9 hPa | 1.27 mm | - | 0 W/m² | - |
| 1777695422 | 10.56° C | 96% | 1016.3 hPa | 0 mm | - | 0 W/m² | - |
| 1777695119 | 10.56° C | 96% | 1016.4 hPa | 0 mm | - | 0 W/m² | - |
| 1777694816 | 10.56° C | 96% | 1016.4 hPa | 1.78 mm | - | 0 W/m² | - |
| 1777694513 | 10.56° C | 96% | 1016.4 hPa | 3.05 mm | - | 0 W/m² | - |
| 1777694209 | 10.56° C | 96% | 1016.4 hPa | 3.05 mm | - | 0 W/m² | - |
| 1777693906 | 10.56° C | 96% | 1016.2 hPa | 6.1 mm | - | 0 W/m² | - |
| 1777693603 | 10.56° C | 96% | 1016.4 hPa | 4.32 mm | - | 0 W/m² | - |
| 1777693301 | 10.56° C | 96% | 1016.4 hPa | 3.05 mm | - | 0 W/m² | - |
| 1777692999 | 10.56° C | 96% | 1016.3 hPa | 1.78 mm | - | 0 W/m² | - |
| 1777692697 | 10.56° C | 96% | 1016.6 hPa | 1.78 mm | - | 0 W/m² | - |
| 1777692393 | 10.56° C | 96% | 1016.4 hPa | 1.78 mm | - | 0 W/m² | - |
| 1777692089 | 10.56° C | 96% | 1016.7 hPa | 1.27 mm | - | 0 W/m² | - |
| 1777691787 | 10.56° C | 96% | 1017 hPa | 1.27 mm | - | 0 W/m² | - |
| 1777691485 | 10.56° C | 96% | 1016.9 hPa | 0 mm | - | 0 W/m² | - |
| 1777691184 | 10.56° C | 96% | 1016.1 hPa | 0 mm | - | 0 W/m² | - |
| 1777690881 | 10.56° C | 96% | 1015.6 hPa | 0 mm | - | 0 W/m² | - |
| 1777690578 | 10.56° C | 96% | 1015.3 hPa | 1.78 mm | - | 0 W/m² | - |
| 1777690276 | 10.56° C | 96% | 1015.2 hPa | 1.78 mm | - | 0 W/m² | - |
| 1777689974 | 10.56° C | 96% | 1015.2 hPa | 0 mm | - | 0 W/m² | - |
| 1777689672 | 10.56° C | 96% | 1015.7 hPa | 1.27 mm | - | 0 W/m² | - |
| 1777689370 | 10.56° C | 96% | 1015.6 hPa | 1.27 mm | - | 0 W/m² | - |
| 1777689066 | 10.56° C | 96% | 1016.1 hPa | 1.27 mm | - | 0 W/m² | - |
* Rain latest hour (hover to see other rain measurements)
** Current wind speed in m/s (hover to see current wind gust speed)